National Weather Service United States Department of Commerce

Observations from across/near northern Michigan

Marine Observations

Michigan Hourly Observations

 

Yesterday's high, low and precipitation reports from across northern Michigan

Northern Michigan Temperatures and Precipitation

 

Observation Text Products


261
SXUS83 KAPX 231426
OMRAPX

Marine Observations
National Weather Service Gaylord MI
1026 AM EDT Wed May 23 2018

WIND DATA (KTS) WAVES
SITE DATE/TIME DIR SPEED GUST (FT) SITE NAME
--------------------------------------------------

Lake Superior/St Marys River

GRMM4 231340Z 80 10 Grand Marais
WFPM4 231340Z 170 3 Whitefish Point
PTIM4 231400Z 270 5 6 Point Iroquois
CYAM 231400Z 300 7 SOO (Canada)
KANJ 231355Z 280 4 Sault Ste Marie
SWPM4 231400Z 270 5 7 S.W. Pier
LTRM4 231400Z 330 4 6 Little Rapids
RCKM4 231400Z 330 5 6 Rock Cut
WNEM4 231400Z 350 4 5 West Nebish Island

Lake Huron

DTLM4 231400Z 360 6 8 DeTour Village
KDRM 231415Z 10 5 Drummond Island
KMCD 231415Z 270 6 Mackinac Island
MACM4 231400Z 310 9 11 Mackinac City
KSLH 231415Z 10 3 Cheboygan Airport
CYGM4 231355Z 320 5 11 Cheboygan Marina
SRLM4 231400Z 270 11 Spectacle Reef Light
KPZQ 231415Z 300 7 Rogers City
PRIM4 231355Z CALM Presque Isle Light
KAPN 231354Z 330 7 Alpena Guard Base
APNM4 231410Z 340 9 12 Alpena Harbor Light
45162 231400Z 50 6 0.3 Thunder Bay Buoy
SPTM4 231355Z CALM Sturgeon Point Light
KOSC 231415Z 280 8 Oscoda
TAWM4 231340Z 270 6 7 Tawas Point
GSLM4 231340Z 220 9 10 Gravelly Shoals
45003 231350Z 310 12 14 1.3 Northern Lake Huron Buoy
45008 231350Z 280 8 10 0.3 Central Lake Huron Buoy
45163 231320Z 250 8 0.3 Saginaw Bay Buoy
KP58 231351Z 290 6 Port Hope

Lake Michigan

KISQ 231415Z 170 3 Manistique
PNLM4 231400Z 210 6 7 Port Inland
NABM4 231340Z 190 3 4 Naubinway
WSLM4 231330Z 210 5 White Shoal Light
KSJX 231415Z 290 4 St James
KMGN 231415Z 240 4 Harbor Springs
KCVX 231415Z CALM Charlevoix
GTLM4 231340Z CALM Grand Traverse Light
KTVC 231353Z CALM Traverse City
KFKS 231415Z 230 8 Frankfort
BSBM4 231340Z 180 9 15 Big Sable Point
LDTM4 231400Z 240 2 6 Ludington
KLDM 231415Z 250 4 Ludington Airport



000
ASUS43 KDTX 231410
RWRMI
MICHIGAN HOURLY REGIONAL WEATHER ROUNDUP
NATIONAL WEATHER SERVICE DETROIT/PONTIAC MI
1000 AM EDT WED MAY 23 2018

NOTE: "FAIR" INDICATES FEW OR NO CLOUDS BELOW 12,000 FEET WITH NO
SIGNIFICANT WEATHER AND/OR OBSTRUCTION TO VISIBILITY.

MIZ047>049-052>055-059>063-066>070-074>076-081>083-231500-
SOUTHEAST LOWER MICHIGAN

CITY SKY/WX TMP DP RH WIND PRES REMARKS
ADRIAN FAIR 66 58 75 N7 30.19R
ALMA FAIR 65 59 79 CALM 30.19S
ANN ARBOR FAIR 68 58 70 NW5 30.18R
BAD AXE FAIR 59 57 91 NW6 30.17S
CARO FAIR 63 56 77 CALM 30.18R
DETROIT CITY FAIR 68 55 63 NW8 30.17R
DETROIT FAIR 68 56 65 NW6 30.18R
FLINT FAIR 64 54 69 NW3 30.19R
GROSSE ILE FAIR 66 58 74 NW3 30.17R
HILLSDALE FAIR 64 55 72 NW6 30.19F
HOWELL FAIR 62 58 86 N3 30.20R

CITY SKY/WX TMP DP RH WIND PRES REMARKS
JACKSON FAIR 64 56 75 NW3 30.20R
LAMBERTVILLE FAIR 67 58 71 N3 30.18R
LANSING FAIR 63 55 75 CALM 30.20R
LAPEER FAIR 61 57 86 CALM 30.19R
MASON FAIR 63 55 73 CALM 30.20R
MONROE FAIR 66 58 75 N6 30.17R
MT. CLEMENS PTSUNNY 66 66 99 NW6 30.16R
PONTIAC FAIR 66 59 78 VRB6 30.17R
PORT HOPE N/A 67 53 61 W7 30.14R
PORT HURON FAIR 64 61 88 NW5 30.16S
TRI CITIES FAIR 65 55 70 VRB3 30.19R
MIDLAND FAIR 65 55 70 CALM 30.18R
TROY FAIR 68 56 65 W5 30.19R
SAGINAW HB FAIR 66 54 63 W3 30.17S
$$
MIZ043>046-050>051-056>058-064>065-071>073-077>080-231500-
SOUTHWEST LOWER MICHIGAN

CITY SKY/WX TMP DP RH WIND PRES REMARKS
BATTLE CREEK FAIR 64 54 69 NE5 30.21R
BENTON HARBOR FAIR 60 54 80 CALM 30.21R
BIG RAPIDS FAIR 63 57 80 CALM 30.18F
COLDWATER FAIR 64 55 72 CALM 30.20R
FREMONT FAIR 59 56 87 CALM 30.20R
HOLLAND FOG 53 52 96 CALM 30.22R VSB 1
GRAND RAPIDS PTSUNNY 58 54 86 CALM 30.20R
IONIA FAIR 60 53 77 CALM 30.19S
KALAMAZOO FAIR 64 52 64 CALM 30.20R
LUDINGTON FAIR 57 53 85 W5 30.18R
MARSHALL FAIR 64 53 67 NE3 30.20R
MOUNT PLEASANT FAIR 66 55 68 CALM 30.18S
MUSKEGON FOG 53 50 89 SW3 30.22R VSB 3/4
SOUTH HAVEN FAIR 58 55 92 CALM 30.22R
$$
MIZ016>042-231500-
NORTHERN LOWER MICHIGAN

CITY SKY/WX TMP DP RH WIND PRES REMARKS
ALPENA FAIR 69 50 50 NW8 30.15R
BEAVER ISLAND FAIR 66 55 68 W7 30.16S
BELLAIRE FAIR 63 51 64 S3 30.18S
CADILLAC FAIR 68 60 75 CALM 30.18F
CHARLEVOIX FAIR 64 54 68 E3 30.19S
FRANKFORT FAIR 62 58 86 W5 30.17S
GAYLORD FAIR 69 49 48 W7 30.18R
GRAYLING FAIR 67 49 51 W7 30.18R
HARBOR SPRINGS FAIR 59 51 76 CALM 30.17R
HOUGHTON LAKE FAIR 64 50 60 SW7 30.19R
MANISTEE FAIR 63 57 81 CALM 30.17F
OSCODA FAIR 71 47 42 NW9 30.14S
PELLSTON FAIR 68 48 48 VRB3 30.17R
ROGERS CITY FAIR 57 50 76 N5 30.17R
TRAVERSE CITY FAIR 67 58 72 CALM 30.16S
$$
MIZ007>008-015-231500-
EASTERN UPPER MICHIGAN

CITY SKY/WX TMP DP RH WIND PRES REMARKS
KINROSS FAIR 62 43 49 NW7 30.16R
MACKINAC ISLAN FAIR 56 51 82 W6 30.17R
NEWBERRY FAIR 64 50 59 CALM 30.16R
S. S. MARIE FAIR 64 44 48 W5 30.15R
MUNISING N/A 59 48 67 CALM 30.14R
$$
MIZ004>006-011>014-085-231500-
CENTRAL UPPER MICHIGAN

CITY SKY/WX TMP DP RH WIND PRES REMARKS
MANISTIQUE FAIR 53 51 94 CALM 30.17S
ESCANABA FAIR 67 51 56 CALM 30.16S
MENOMINEE FAIR 66 52 60 N3 30.17R
SAWYER-GWINN SUNNY 72 37 28 SW7 30.16S
$$
MIZ001>003-009>011-084-231500-
WESTERN UPPER MICHIGAN

CITY SKY/WX TMP DP RH WIND PRES REMARKS
IRON MOUNTAIN FAIR 67 47 48 CALM 30.16S
HOUGHTON FAIR 72 53 51 W13 30.13R
COPPER HARBOR N/A 56 39 53 CALM 30.12S
IRONWOOD FAIR 71 57 61 W5 30.17R
$$

ABBREVIATIONS USED IN REMARKS
TC - TEMPERATURE IN CELSIUS
WCI - WIND CHILL INDEX
HX - HEAT INDEX
VSB - VISIBILITY




000
ASUS63 KAPX 231402
RTPAPX


Eastern Upper/Northern Lower Michigan Temperature and Precip Summary
National Weather Service Gaylord MI
1002 AM EDT Wed May 23 2018

Yesterday`s High Temperature...12 hour Low ending 8 am EDT
24 hour Precipitation/Snowfall ending 8 am EDT
Snow Depth observed at 8 am EDT

.BR APX 0523 ES DH00/TAIRZX/DH07/TAIRZP/PPDRZZ/SFDRZZ/SDIRZZ
:..................................................................
: MAX MIN 24 HR 24 HR SNOW
:ID LOCATION TEMP TEMP PRECIP SNOW DEPTH
:..................................................................
ANJ : Sault Ste Marie : 75 / 46 / 0.00 / 0.0 / 0.0
APN : Alpena : 72 / 49 / 0.00 / 0.0 / 0.0
HTL : Houghton Lake : 72 / 41 / 0.00 / 0.0 / 0.0
PLN : Pellston : 74 / 37 / 0.00 / /
TVC : Traverse City : 68 / 46 / 0.00 / /
GLR : Gaylord : 72 / 42 / 0.00 / /
.END

Cooperative Observations
Temperature/Precipitation/Snowfall values are for 24 hour period
ending at observation time. Snow Depth at obs time.

...................................................................
OBS MAX MIN SNOW SNOW
ID LOCATION TIME TEMP TEMP PCPN FALL DEPTH
...................................................................
ATLM4: Atlanta 1SW :DH0700/ 73 / 41 / T / 0.0 / 0.0
BEUM4: Beulah 7SSW :DH0800/ 65 / 46 / 0.00 / M / M
CDLM4: Cadillac 9&10 News :DH0730/ 72 / 48 / 0.00 / 0.0 / 0.0
CHBM4: Cheboygan :DH0800/ 66 / 43 / 0.00 / M / M
DTVM4: Detour Village :DH0800/ 68 / 46 / 0.00 / 0.0 / 0.0
ETWM4: East Tawas :DH0830/ 65 / 45 / 0.00 / 0.0 / 0.0
GAYM4: Gaylord :DH0800/ 72 / 43 / T / 0.0 / 0.0
APXM4: Gaylord 9SSW (NWS) :DH0800/ M / M / T / 0.0 / 0.0
GLAM4: Gladwin :DH0700/ 70 / 46 / 0.00 / 0.0 / 0.0
GLNM4: Glennie 2SE :DH0730/ 68 / 46 / 0.00 / 0.0 / 0.0
HALM4: Hale Loud Dam :DH0900/ 70 / 46 / 0.00 / 0.0 / 0.0
LKCM4: Lake City 2SE :DH0800/ 73 / 40 / 0.00 / 0.0 / 0.0
LEWM4: Lewiston 3W :DH0800/ 71 / 45 / 0.00 / 0.0 / 0.0
MYOM4: Mio :DH0830/ 71 / 41 / 0.00 / 0.0 / 0.0
MRAM4: Moran :DH0800/ 72 / 42 / 0.00 / 0.0 / 0.0
OMSM4: Old Mission 3SSW :DH0800/ 67 / 43 / 0.00 / M / M
PETM4: Petoskey :DH0800/ 60 / 45 / 0.00 / 0.0 / M
SSMM4: Sault Ste Marie :DH0800/ 76 / 41 / 0.00 / M / M
STIM4: St Ignace :DH0700/ 70 / 45 / 0.00 / 0.0 / 0.0
NWFM4: Traverse City 8NNW :DH0800/ 67 / 51 / 0.00 / M / M
TCMM4: Traverse City Munson :DH0605/ 67 / 47 / 0.00 / 0.0 / 0.0
WBRM4: West Branch 3SE :DH0800/ 69 / 46 / 0.00 / 0.0 / 0.0

These data are preliminary and have not undergone final quality
control by the National Centers for Environmental Information.
Therefore...these data are subject to revision. Final
and certified climate data can be accessed at www.ncdc.noaa.gov.

&&

The following are supplemental temperature and precipitation data.
This includes data which are received from non-National Weather
Service maintained observing systems...as well as reports from
public weather spotters. Data is only partially quality controlled
and is not suitable for official climatological records.

.BR APX 0523 ES DH00/TAIRZX/DH07/TAIRZP
:
:Automated Temperature Data--Yesterday High/12 hr Low ending 8 am EDT
:..................................................................
: MAX MIN
:ID LOCATION TEMP TEMP
:..................................................................
:
ERY : Newberry : 74 / 43
CIU : Kinross : 74 / 43
MCD : Mackinac Island : 67 / 47
DRM : Drummond Island : 70 / 51
SJX : Beaver Island : 67 / 43
SLH : Cheboygan : 69 / 42
PZQ : Rogers City : 64 / 50
CVX : Charlevoix : 62 / 44
MGN : Harbor Springs : 57 / 43
ACB : Bellaire : 68 / 41
FKS : Frankfort : 64 / 45
GOV : Grayling AAF : M / M
MBL : Manistee : 60 / 41
CAD : Cadillac : 71 / 41
Y31 : West Branch : 69 / 45
OSC : Oscoda : 66 / 46
LDM : Ludington : 62 / 42
RQB : Big Rapids : 67 / 43
MOP : Mount Pleasant : 68 / 50
IKW : Midland : 65 / 42
.END

U.S. Forest Service Remote Automated Weather Stations (RAWS)
Data is only partially quality controlled
Yesterday`s High/12 hour Low Temperature ending 8 am EDT
Maximum Relative Humidity over past 12 hours
12/24 hour Precipitation ending 8 am EDT
...................................................................
MAX MIN MAX 12 HR 24 HR
ID LOCATION TEMP TEMP RH PRECIP PRECIP
...................................................................
AGRM4: Alger RAWS : M / M / M / M / M
ATAM4: Atlanta RAWS : 73 / 37 / 100 / 0.00 / 0.00
BCYM4: Barton City RAWS : 71 / 43 / 100 / 0.00 / 0.01
GYGM4: Grayling RAWS : 76 / 42 / 97 / 0.00 / 0.00
INDM4: Indian River RAWS : 91 / 71 / 40 / 0.00 / 0.00
MMOM4: Mio RAWS : 73 / 42 / 100 / 0.00 / 0.00
MTNM4: Manton RAWS : M / M / M / M / M
NMIM4: N Manitou Island : 60 / 46 / 93 / 0.00 / 0.00
RACM4: Raco RAWS : 76 / 37 / 90 / 0.00 / 0.00
REXM4: Rexton RAWS : 72 / 36 / 100 / 0.00 / 0.00
RSCM4: Roscommon RAWS : 75 / 35 / M / 0.00 / 0.00
RYDM4: Rudyard RAWS : 75 / 38 / 100 / 0.00 / 0.00
SBDM4: The Bear RAWS : 65 / 43 / 100 / 0.00 / 0.00
SCKM4: Silver Creek RAWS : 66 / 47 / 100 / 0.00 / 0.01
WLLM4: Wellston RAWS : 71 / 42 / 99 / 0.00 / 0.00

The following are precipitation reports received by the National
Weather Service in Gaylord...valid for the time period ending
around 8 am EDT. All reports have been recorded in inches.

Spotter reports from Eastern Upper and Northern Lower Michigan:

WATER TIME SNOW
LOCATION RAIN SNOW EQUIV PERIOD DEPTH
None received



CoCoRaHS Precipitation Reports
Values are for the previous 24 hours ending around 8 am EDT.
All reports have been recorded in inches.

SNOW SNOW WATER
STATION LOCATION PCPN FALL DEPTH EQUIV
MIAP02 : OSSINEKE 1.0 NNE * : 0.02 / MM / MM / MM
MIMK01 : LAKE CITY 5.0 SSW * : 0.02 / MM / MM / MM
MIAR02 : ALGER 2.4 ENE * : 0.01 / MM / MM / MM
MIOT04 : GAYLORD 1.7 WNW * : T / 0.0 / 0.0 / MM
MIOG06 : WEST BRANCH 2.1 SSW * : T / MM / MM / MM
MICF09 : GRAYLING 15.8 NE * : 0.00 / 0.0 / 0.0 / MM
MIIC03 : EAST TAWAS 0.8 WSW * : 0.00 / 0.0 / 0.0 / 0.00
MIMN06 : WELLSTON 3.9 WNW * : 0.00 / 0.0 / 0.0 / 0.00
MIBZ01 : BENZONIA 5.3 S * : 0.00 / 0.0 / MM / MM
MICX04 : CHARLEVOIX 4.3 SSE * : 0.00 / 0.0 / MM / MM
MIEM05 : HARBOR SPRINGS 0.7 ENE * : 0.00 / 0.0 / MM / MM
MIGT21 : KINGSLEY 2.7 ENE * : 0.00 / 0.0 / MM / MM
MIMC03 : CEDARVILLE 3.2 ESE * : 0.00 / 0.0 / MM / MM
MIMC04 : ST. IGNACE 0.5SE * : 0.00 / 0.0 / MM / MM
MIOD03 : LUZERNE 2.4 NE * : 0.00 / 0.0 / MM / MM
MIPI01 : ROGERS CITY 0.2 WSW * : 0.00 / 0.0 / MM / MM
MIRS03 : HOUGHTON LAKE 0.7 SSE * : 0.00 / 0.0 / MM / MM

$$